Time,TemperatureF,DewpointF,PressureIn,WindDirection,WindDirectionDegrees,WindSpeedMPH,WindSpeedGustMPH,Humidity,HourlyPrecipIn,Conditions,Clouds,dailyrainin,SoftwareType,DateUTC
2013-07-04 00:00:00,70.5,69.9,30.06,NNE,31,0.0,0.0,98,0.00,,BKN055,0.00,VWS V14.00,2013-07-04 04:00:00,
2013-07-04 00:01:00,70.5,69.9,30.06,NNE,31,0.0,0.0,98,0.00,,BKN055,0.00,VWS V14.00,2013-07-04 04:01:00,
2013-07-04 00:10:00,70.6,70.0,30.06,NNE,30,0.0,0.0,98,0.00,,BKN055,0.00,VWS V14.00,2013-07-04 04:10:00,
2013-07-04 00:11:00,70.6,70.0,30.06,NNE,30,0.0,0.0,98,0.00,,BKN055,0.00,VWS V14.00,2013-07-04 04:11:00,
2013-07-04 00:20:00,70.5,69.9,30.06,NNE,31,0.0,0.0,98,0.00,,BKN055,0.00,VWS V14.00,2013-07-04 04:20:00,
2013-07-04 00:21:00,70.5,69.9,30.06,NNE,31,0.0,0.0,98,0.00,,BKN055,0.00,VWS V14.00,2013-07-04 04:21:00,
2013-07-04 00:30:00,70.4,69.8,30.07,NNE,30,0.0,0.0,98,0.00,,BKN055,0.00,VWS V14.00,2013-07-04 04:30:00,
2013-07-04 00:31:00,70.4,69.8,30.07,NNE,30,0.0,0.0,98,0.00,,BKN055,0.00,VWS V14.00,2013-07-04 04:31:00,
2013-07-04 00:40:00,70.6,70.0,30.06,NNE,30,0.0,0.0,98,0.00,,BKN055,0.00,VWS V14.00,2013-07-04 04:40:00,
2013-07-04 00:41:00,70.6,70.0,30.06,NNE,30,0.0,0.0,98,0.00,,BKN055,0.00,VWS V14.00,2013-07-04 04:41:00,
2013-07-04 00:50:00,70.9,70.3,30.06,NNE,30,0.0,0.0,98,0.00,,BKN055,0.00,VWS V14.00,2013-07-04 04:50:00,
2013-07-04 00:51:00,70.9,70.3,30.06,NNE,30,0.0,0.0,98,0.00,,BKN055,0.00,VWS V14.00,2013-07-04 04:51:00,
2013-07-04 01:00:00,71.2,70.6,30.06,NNE,30,0.0,0.0,98,0.00,,BKN055,0.00,VWS V14.00,2013-07-04 05:00:00,
2013-07-04 01:01:00,71.2,70.6,30.06,NNE,30,0.0,0.0,98,0.00,,BKN055,0.00,VWS V14.00,2013-07-04 05:01:00,
2013-07-04 01:10:00,71.4,70.8,30.06,NNE,33,0.0,0.0,98,0.00,,BKN055,0.00,VWS V14.00,2013-07-04 05:10:00,
2013-07-04 01:11:00,71.4,70.8,30.06,NNE,33,0.0,0.0,98,0.00,,BKN055,0.00,VWS V14.00,2013-07-04 05:11:00,
2013-07-04 01:20:00,71.7,70.8,30.06,NNE,32,0.0,0.0,97,0.00,,BKN055,0.00,VWS V14.00,2013-07-04 05:20:00,
2013-07-04 01:21:00,71.7,70.8,30.06,NNE,32,0.0,0.0,97,0.00,,BKN055,0.00,VWS V14.00,2013-07-04 05:21:00,
2013-07-04 01:30:00,71.9,71.0,30.06,West,270,3.0,4.0,97,0.00,,BKN055,0.00,VWS V14.00,2013-07-04 05:30:00,
2013-07-04 01:31:00,71.9,71.0,30.06,West,270,3.0,4.0,97,0.00,,BKN055,0.00,VWS V14.00,2013-07-04 05:31:00,
2013-07-04 01:40:00,72.1,70.9,30.06,West,271,0.0,3.0,96,0.00,,BKN055,0.00,VWS V14.00,2013-07-04 05:40:00,
2013-07-04 01:41:00,72.1,70.9,30.06,West,271,0.0,3.0,96,0.00,,BKN055,0.00,VWS V14.00,2013-07-04 05:41:00,
2013-07-04 01:50:00,72.1,70.9,30.07,West,271,0.0,0.0,96,0.00,,BKN055,0.00,VWS V14.00,2013-07-04 05:50:00,
2013-07-04 01:51:00,72.1,70.9,30.07,West,271,0.0,0.0,96,0.00,,BKN055,0.00,VWS V14.00,2013-07-04 05:51:00,
2013-07-04 02:00:00,72.2,71.0,30.07,West,271,0.0,0.0,96,0.00,,BKN055,0.00,VWS V14.00,2013-07-04 06:00:00,
2013-07-04 02:01:00,72.2,71.0,30.07,West,271,0.0,0.0,96,0.00,,BKN055,0.00,VWS V14.00,2013-07-04 06:01:00,
2013-07-04 02:10:00,72.3,71.1,30.07,West,271,0.0,3.0,96,0.00,,BKN055,0.00,VWS V14.00,2013-07-04 06:10:00,
2013-07-04 02:11:00,72.3,71.1,30.07,West,271,0.0,3.0,96,0.00,,BKN055,0.00,VWS V14.00,2013-07-04 06:11:00,
2013-07-04 02:20:00,72.2,71.0,30.06,West,271,0.0,0.0,96,0.00,,BKN055,0.00,VWS V14.00,2013-07-04 06:20:00,
2013-07-04 02:21:00,72.2,71.0,30.06,West,271,0.0,0.0,96,0.00,,BKN055,0.00,VWS V14.00,2013-07-04 06:21:00,
2013-07-04 02:30:00,72.1,70.9,30.07,NNW,342,0.0,2.0,96,0.00,,BKN055,0.00,VWS V14.00,2013-07-04 06:30:00,
2013-07-04 02:31:00,72.1,70.9,30.07,NNW,342,0.0,2.0,96,0.00,,BKN055,0.00,VWS V14.00,2013-07-04 06:31:00,
2013-07-04 02:40:00,71.9,70.7,30.06,NNW,342,0.0,0.0,96,0.00,,BKN055,0.00,VWS V14.00,2013-07-04 06:40:00,
2013-07-04 02:41:00,71.9,70.7,30.06,NNW,342,0.0,0.0,96,0.00,,BKN055,0.00,VWS V14.00,2013-07-04 06:41:00,
2013-07-04 02:50:00,71.7,70.5,30.06,NNW,342,0.0,0.0,96,0.00,,BKN055,0.00,VWS V14.00,2013-07-04 06:50:00,
2013-07-04 02:51:00,71.7,70.5,30.06,NNW,342,0.0,0.0,96,0.00,,BKN055,0.00,VWS V14.00,2013-07-04 06:51:00,
2013-07-04 03:00:00,71.4,70.2,30.07,NNW,342,0.0,1.0,96,0.00,,BKN055,0.00,VWS V14.00,2013-07-04 07:00:00,
2013-07-04 03:01:00,71.4,70.2,30.07,NNW,342,0.0,1.0,96,0.00,,BKN055,0.00,VWS V14.00,2013-07-04 07:01:00,
2013-07-04 03:10:00,71.2,70.0,30.07,NNW,342,0.0,0.0,96,0.00,,BKN055,0.00,VWS V14.00,2013-07-04 07:10:00,
2013-07-04 03:11:00,71.2,70.0,30.07,NNW,342,0.0,0.0,96,0.00,,BKN055,0.00,VWS V14.00,2013-07-04 07:11:00,
2013-07-04 03:20:00,71.1,69.9,30.07,NNW,342,0.0,0.0,96,0.00,,BKN055,0.00,VWS V14.00,2013-07-04 07:20:00,
2013-07-04 03:21:00,71.1,69.9,30.07,NNW,342,0.0,0.0,96,0.00,,BKN055,0.00,VWS V14.00,2013-07-04 07:21:00,
2013-07-04 03:30:00,70.9,69.7,30.07,NNW,342,0.0,0.0,96,0.00,,BKN055,0.00,VWS V14.00,2013-07-04 07:30:00,
2013-07-04 03:31:00,70.9,69.7,30.07,NNW,342,0.0,0.0,96,0.00,,BKN055,0.00,VWS V14.00,2013-07-04 07:31:00,
2013-07-04 03:40:00,70.7,69.5,30.07,NNW,342,0.0,0.0,96,0.00,,BKN055,0.00,VWS V14.00,2013-07-04 07:40:00,
2013-07-04 03:41:00,70.7,69.5,30.07,NNW,342,0.0,0.0,96,0.00,,BKN055,0.00,VWS V14.00,2013-07-04 07:41:00,
2013-07-04 03:50:00,70.4,69.2,30.07,NNW,342,0.0,0.0,96,0.00,,BKN055,0.00,VWS V14.00,2013-07-04 07:50:00,
2013-07-04 03:51:00,70.4,69.2,30.07,NNW,342,0.0,0.0,96,0.00,,BKN055,0.00,VWS V14.00,2013-07-04 07:51:00,
2013-07-04 04:00:00,70.2,68.7,30.07,NNW,342,0.0,0.0,95,0.00,,BKN055,0.00,VWS V14.00,2013-07-04 08:00:00,
2013-07-04 04:01:00,70.2,68.7,30.07,NNW,342,0.0,0.0,95,0.00,,BKN055,0.00,VWS V14.00,2013-07-04 08:01:00,
2013-07-04 04:10:00,70.0,68.5,30.07,NNW,342,0.0,0.0,95,0.00,,BKN055,0.00,VWS V14.00,2013-07-04 08:10:00,
2013-07-04 04:11:00,70.0,68.5,30.07,NNW,342,0.0,0.0,95,0.00,,BKN055,0.00,VWS V14.00,2013-07-04 08:11:00,
2013-07-04 04:20:00,70.0,68.5,30.07,NNW,342,0.0,0.0,95,0.00,,BKN055,0.00,VWS V14.00,2013-07-04 08:20:00,
2013-07-04 04:21:00,70.0,68.5,30.07,NNW,342,0.0,0.0,95,0.00,,BKN055,0.00,VWS V14.00,2013-07-04 08:21:00,
2013-07-04 04:30:00,69.9,68.4,30.07,NNW,342,0.0,0.0,95,0.00,,BKN055,0.00,VWS V14.00,2013-07-04 08:30:00,
2013-07-04 04:31:00,69.9,68.4,30.07,NNW,342,0.0,0.0,95,0.00,,BKN055,0.00,VWS V14.00,2013-07-04 08:31:00,
2013-07-04 04:40:00,69.9,68.1,30.07,NNW,342,0.0,0.0,94,0.00,,BKN055,0.00,VWS V14.00,2013-07-04 08:40:00,
2013-07-04 04:41:00,69.9,68.1,30.07,NNW,342,0.0,0.0,94,0.00,,BKN055,0.00,VWS V14.00,2013-07-04 08:41:00,
2013-07-04 04:50:00,69.9,68.1,30.07,NNW,342,0.0,0.0,94,0.00,,BKN055,0.00,VWS V14.00,2013-07-04 08:50:00,
2013-07-04 04:51:00,69.9,68.1,30.07,NNW,342,0.0,0.0,94,0.00,,BKN055,0.00,VWS V14.00,2013-07-04 08:51:00,
2013-07-04 05:00:00,70.0,68.2,30.07,NNW,344,0.0,0.0,94,0.00,,BKN055,0.00,VWS V14.00,2013-07-04 09:00:00,
2013-07-04 05:01:00,70.0,68.2,30.07,NNW,344,0.0,0.0,94,0.00,,BKN055,0.00,VWS V14.00,2013-07-04 09:01:00,
2013-07-04 05:10:00,70.0,68.2,30.07,NNW,344,0.0,0.0,94,0.00,,BKN055,0.00,VWS V14.00,2013-07-04 09:10:00,
2013-07-04 05:11:00,70.0,68.2,30.07,NNW,344,0.0,0.0,94,0.00,,BKN055,0.00,VWS V14.00,2013-07-04 09:11:00,
2013-07-04 05:20:00,69.9,68.1,30.07,NNW,345,0.0,0.0,94,0.00,,BKN055,0.00,VWS V14.00,2013-07-04 09:20:00,
2013-07-04 05:21:00,69.9,68.1,30.07,NNW,345,0.0,0.0,94,0.00,,BKN055,0.00,VWS V14.00,2013-07-04 09:21:00,
2013-07-04 05:30:00,69.9,67.8,30.07,North,360,0.0,0.0,93,0.00,,BKN055,0.00,VWS V14.00,2013-07-04 09:30:00,
2013-07-04 05:31:00,69.9,67.8,30.07,North,360,0.0,0.0,93,0.00,,BKN055,0.00,VWS V14.00,2013-07-04 09:31:00,
2013-07-04 05:40:00,70.0,67.9,30.07,North,360,0.0,0.0,93,0.00,,BKN055,0.00,VWS V14.00,2013-07-04 09:40:00,
2013-07-04 05:41:00,70.0,67.9,30.07,North,360,0.0,0.0,93,0.00,,BKN055,0.00,VWS V14.00,2013-07-04 09:41:00,
2013-07-04 05:50:00,70.1,68.0,30.07,North,360,0.0,0.0,93,0.00,,BKN055,0.00,VWS V14.00,2013-07-04 09:50:00,
2013-07-04 05:51:00,70.1,68.0,30.07,North,360,0.0,0.0,93,0.00,,BKN055,0.00,VWS V14.00,2013-07-04 09:51:00,
2013-07-04 06:00:00,70.1,68.0,30.07,North,360,0.0,0.0,93,0.00,,BKN055,0.00,VWS V14.00,2013-07-04 10:00:00,
2013-07-04 06:01:00,70.1,68.0,30.07,North,360,0.0,0.0,93,0.00,,BKN055,0.00,VWS V14.00,2013-07-04 10:01:00,
2013-07-04 06:10:00,70.1,68.0,30.08,North,355,0.0,0.0,93,0.00,,BKN055,0.00,VWS V14.00,2013-07-04 10:10:00,
2013-07-04 06:11:00,70.1,68.0,30.08,North,355,0.0,0.0,93,0.00,,BKN055,0.00,VWS V14.00,2013-07-04 10:11:00,
2013-07-04 06:20:00,70.2,68.1,30.08,West,276,0.0,3.0,93,0.00,,BKN055,0.00,VWS V14.00,2013-07-04 10:20:00,
2013-07-04 06:21:00,70.2,68.1,30.08,West,276,0.0,3.0,93,0.00,,BKN055,0.00,VWS V14.00,2013-07-04 10:21:00,
2013-07-04 06:30:00,70.1,68.0,30.08,West,276,0.0,0.0,93,0.00,,BKN055,0.00,VWS V14.00,2013-07-04 10:30:00,
2013-07-04 06:31:00,70.1,68.0,30.08,West,276,0.0,0.0,93,0.00,,BKN055,0.00,VWS V14.00,2013-07-04 10:31:00,
2013-07-04 06:40:00,70.1,68.0,30.08,West,277,0.0,0.0,93,0.00,,BKN055,0.00,VWS V14.00,2013-07-04 10:40:00,
2013-07-04 06:41:00,70.1,68.0,30.08,West,277,0.0,0.0,93,0.00,,BKN055,0.00,VWS V14.00,2013-07-04 10:41:00,
2013-07-04 06:50:00,70.2,68.4,30.08,West,277,0.0,0.0,94,0.00,,BKN055,0.00,VWS V14.00,2013-07-04 10:50:00,
2013-07-04 06:51:00,70.2,68.4,30.08,West,277,0.0,0.0,94,0.00,,BKN055,0.00,VWS V14.00,2013-07-04 10:51:00,
2013-07-04 07:00:00,70.3,68.2,30.08,West,271,0.0,3.0,93,0.00,,BKN055,0.00,VWS V14.00,2013-07-04 11:00:00,
2013-07-04 07:01:00,70.3,68.2,30.08,West,271,0.0,3.0,93,0.00,,BKN055,0.00,VWS V14.00,2013-07-04 11:01:00,
2013-07-04 07:10:00,70.3,68.5,30.09,West,271,0.0,0.0,94,0.00,,BKN055,0.00,VWS V14.00,2013-07-04 11:10:00,
2013-07-04 07:11:00,70.3,68.5,30.09,West,271,0.0,0.0,94,0.00,,BKN055,0.00,VWS V14.00,2013-07-04 11:11:00,
2013-07-04 07:20:00,70.4,68.6,30.09,West,271,0.0,0.0,94,0.00,,BKN055,0.00,VWS V14.00,2013-07-04 11:20:00,
2013-07-04 07:21:00,70.4,68.6,30.09,West,271,0.0,0.0,94,0.00,,BKN055,0.00,VWS V14.00,2013-07-04 11:21:00,
2013-07-04 07:30:00,70.4,68.3,30.09,West,271,0.0,0.0,93,0.00,,BKN055,0.00,VWS V14.00,2013-07-04 11:30:00,
2013-07-04 07:31:00,70.4,68.3,30.09,West,271,0.0,0.0,93,0.00,,BKN055,0.00,VWS V14.00,2013-07-04 11:31:00,
2013-07-04 07:40:00,70.5,68.7,30.09,West,271,0.0,0.0,94,0.00,,BKN055,0.00,VWS V14.00,2013-07-04 11:40:00,
2013-07-04 07:41:00,70.5,68.7,30.09,West,271,0.0,0.0,94,0.00,,BKN055,0.00,VWS V14.00,2013-07-04 11:41:00,
2013-07-04 07:50:00,70.6,68.8,30.09,SSE,148,0.0,0.0,94,0.00,,BKN055,0.00,VWS V14.00,2013-07-04 11:50:00,
2013-07-04 07:51:00,70.6,68.8,30.09,SSE,148,0.0,0.0,94,0.00,,BKN055,0.00,VWS V14.00,2013-07-04 11:51:00,
2013-07-04 08:00:00,70.4,68.3,30.09,ENE,59,0.0,3.0,93,0.00,,BKN055,0.00,VWS V14.00,2013-07-04 12:00:00,
2013-07-04 08:01:00,70.4,68.3,30.09,ENE,59,0.0,3.0,93,0.00,,BKN055,0.00,VWS V14.00,2013-07-04 12:01:00,
2013-07-04 08:10:00,70.4,68.3,30.10,ENE,59,0.0,3.0,93,0.00,,BKN055,0.00,VWS V14.00,2013-07-04 12:10:00,
2013-07-04 08:11:00,70.4,68.3,30.10,ENE,59,0.0,3.0,93,0.00,,BKN055,0.00,VWS V14.00,2013-07-04 12:11:00,
2013-07-04 08:20:00,70.2,68.4,30.10,ENE,59,0.0,1.0,94,0.01,,BKN055,0.01,VWS V14.00,2013-07-04 12:20:00,
2013-07-04 08:21:00,70.2,68.4,30.10,ENE,59,0.0,1.0,94,0.01,,BKN055,0.01,VWS V14.00,2013-07-04 12:21:00,
2013-07-04 08:30:00,70.0,68.2,30.10,ENE,59,0.0,1.0,94,0.01,,BKN055,0.01,VWS V14.00,2013-07-04 12:30:00,
2013-07-04 08:31:00,70.0,68.2,30.10,ENE,59,0.0,1.0,94,0.01,,BKN055,0.01,VWS V14.00,2013-07-04 12:31:00,
2013-07-04 08:40:00,69.9,68.4,30.10,ENE,59,0.0,0.0,95,0.02,,BKN055,0.02,VWS V14.00,2013-07-04 12:40:00,
2013-07-04 08:41:00,69.9,68.4,30.10,ENE,59,0.0,0.0,95,0.02,,BKN055,0.02,VWS V14.00,2013-07-04 12:41:00,
2013-07-04 08:50:00,69.7,68.2,30.10,ENE,59,0.0,0.0,95,0.03,,BKN055,0.03,VWS V14.00,2013-07-04 12:50:00,
2013-07-04 08:51:00,69.7,68.2,30.10,ENE,59,0.0,0.0,95,0.03,,BKN055,0.03,VWS V14.00,2013-07-04 12:51:00,
2013-07-04 09:00:00,69.4,67.9,30.10,ENE,59,0.0,0.0,95,0.09,,BKN055,0.09,VWS V14.00,2013-07-04 13:00:00,
2013-07-04 09:01:00,69.4,67.9,30.10,ENE,59,0.0,0.0,95,0.09,,BKN055,0.09,VWS V14.00,2013-07-04 13:01:00,
2013-07-04 09:10:00,69.2,68.0,30.10,ENE,59,0.0,1.0,96,0.13,,BKN055,0.13,VWS V14.00,2013-07-04 13:10:00,
2013-07-04 09:11:00,69.2,68.0,30.10,ENE,59,0.0,1.0,96,0.13,,BKN055,0.13,VWS V14.00,2013-07-04 13:11:00,
2013-07-04 09:20:00,69.2,68.3,30.10,ENE,59,0.0,0.0,97,0.15,,BKN055,0.15,VWS V14.00,2013-07-04 13:20:00,
2013-07-04 09:21:00,69.2,68.3,30.10,ENE,59,0.0,0.0,97,0.15,,BKN055,0.15,VWS V14.00,2013-07-04 13:21:00,
2013-07-04 09:30:00,69.2,68.3,30.10,ENE,59,0.0,1.0,97,0.16,,BKN055,0.17,VWS V14.00,2013-07-04 13:30:00,
2013-07-04 09:31:00,69.2,68.3,30.10,ENE,59,0.0,1.0,97,0.16,,BKN055,0.17,VWS V14.00,2013-07-04 13:31:00,
2013-07-04 09:40:00,69.4,68.5,30.10,ENE,59,0.0,0.0,97,0.17,,BKN055,0.18,VWS V14.00,2013-07-04 13:40:00,
2013-07-04 09:41:00,69.4,68.5,30.10,ENE,59,0.0,0.0,97,0.17,,BKN055,0.18,VWS V14.00,2013-07-04 13:41:00,
2013-07-04 09:50:00,69.4,68.5,30.10,ENE,59,0.0,0.0,97,0.16,,BKN055,0.18,VWS V14.00,2013-07-04 13:50:00,
2013-07-04 09:51:00,69.4,68.5,30.10,ENE,59,0.0,0.0,97,0.16,,BKN055,0.18,VWS V14.00,2013-07-04 13:51:00,
2013-07-04 10:00:00,69.5,68.6,30.10,ENE,63,0.0,0.0,97,0.15,,BKN055,0.18,VWS V14.00,2013-07-04 14:00:00,
2013-07-04 10:01:00,69.5,68.6,30.10,ENE,63,0.0,0.0,97,0.15,,BKN055,0.18,VWS V14.00,2013-07-04 14:01:00,
2013-07-04 10:10:00,69.6,68.7,30.09,ENE,63,0.0,0.0,97,0.10,,BKN055,0.19,VWS V14.00,2013-07-04 14:10:00,
2013-07-04 10:11:00,69.6,68.7,30.09,ENE,63,0.0,0.0,97,0.10,,BKN055,0.19,VWS V14.00,2013-07-04 14:11:00,
2013-07-04 10:20:00,69.8,69.2,30.10,ENE,63,0.0,1.0,98,0.06,,BKN055,0.19,VWS V14.00,2013-07-04 14:20:00,
2013-07-04 10:21:00,69.8,69.2,30.10,ENE,63,0.0,1.0,98,0.06,,BKN055,0.19,VWS V14.00,2013-07-04 14:21:00,
2013-07-04 10:30:00,70.1,69.5,30.09,ENE,63,0.0,2.0,98,0.05,,BKN055,0.20,VWS V14.00,2013-07-04 14:30:00,
2013-07-04 10:31:00,70.1,69.5,30.09,ENE,63,0.0,2.0,98,0.05,,BKN055,0.20,VWS V14.00,2013-07-04 14:31:00,
2013-07-04 10:40:00,70.3,69.7,30.10,ENE,63,0.0,0.0,98,0.03,,BKN055,0.20,VWS V14.00,2013-07-04 14:40:00,
2013-07-04 10:41:00,70.3,69.7,30.10,ENE,63,0.0,0.0,98,0.03,,BKN055,0.20,VWS V14.00,2013-07-04 14:41:00,
2013-07-04 10:50:00,70.3,69.7,30.09,ENE,65,0.0,0.0,98,0.02,,BKN055,0.20,VWS V14.00,2013-07-04 14:50:00,
2013-07-04 10:51:00,70.3,69.7,30.09,ENE,65,0.0,0.0,98,0.02,,BKN055,0.20,VWS V14.00,2013-07-04 14:51:00,
2013-07-04 11:00:00,70.5,69.9,30.10,WNW,299,0.0,0.0,98,0.02,,BKN055,0.20,VWS V14.00,2013-07-04 15:00:00,
2013-07-04 11:01:00,70.5,69.9,30.10,WNW,299,0.0,0.0,98,0.02,,BKN055,0.20,VWS V14.00,2013-07-04 15:01:00,
2013-07-04 11:10:00,70.6,70.0,30.10,WNW,298,0.0,0.0,98,0.02,,BKN055,0.20,VWS V14.00,2013-07-04 15:10:00,
2013-07-04 11:11:00,70.6,70.0,30.10,WNW,298,0.0,0.0,98,0.02,,BKN055,0.20,VWS V14.00,2013-07-04 15:11:00,
2013-07-04 11:20:00,70.6,70.0,30.10,WNW,296,0.0,0.0,98,0.01,,BKN055,0.20,VWS V14.00,2013-07-04 15:20:00,
2013-07-04 11:21:00,70.6,70.0,30.10,WNW,296,0.0,0.0,98,0.01,,BKN055,0.20,VWS V14.00,2013-07-04 15:21:00,
2013-07-04 11:30:00,70.7,70.1,30.10,NNW,330,0.0,0.0,98,0.02,,BKN055,0.21,VWS V14.00,2013-07-04 15:30:00,
2013-07-04 11:31:00,70.7,70.1,30.10,NNW,330,0.0,0.0,98,0.02,,BKN055,0.21,VWS V14.00,2013-07-04 15:31:00,
2013-07-04 11:40:00,70.8,70.2,30.10,NNW,330,0.0,0.0,98,0.01,,BKN055,0.21,VWS V14.00,2013-07-04 15:40:00,
2013-07-04 11:41:00,70.8,70.2,30.10,NNW,330,0.0,0.0,98,0.01,,BKN055,0.21,VWS V14.00,2013-07-04 15:41:00,
2013-07-04 11:50:00,70.7,69.8,30.10,NNW,346,3.0,3.0,97,0.02,,BKN055,0.22,VWS V14.00,2013-07-04 15:50:00,
2013-07-04 11:51:00,70.7,69.8,30.10,NNW,346,3.0,3.0,97,0.02,,BKN055,0.22,VWS V14.00,2013-07-04 15:51:00,
2013-07-04 12:00:00,70.7,70.1,30.10,WSW,252,0.0,3.0,98,0.02,,BKN055,0.22,VWS V14.00,2013-07-04 16:00:00,
2013-07-04 12:01:00,70.7,70.1,30.10,WSW,252,0.0,3.0,98,0.02,,BKN055,0.22,VWS V14.00,2013-07-04 16:01:00,
2013-07-04 12:10:00,70.6,70.0,30.10,WSW,252,0.0,1.0,98,0.02,,BKN055,0.22,VWS V14.00,2013-07-04 16:10:00,
2013-07-04 12:11:00,70.6,70.0,30.10,WSW,252,0.0,1.0,98,0.02,,BKN055,0.22,VWS V14.00,2013-07-04 16:11:00,
2013-07-04 12:20:00,70.5,69.9,30.11,WSW,254,0.0,0.0,98,0.05,,BKN055,0.25,VWS V14.00,2013-07-04 16:20:00,
2013-07-04 12:21:00,70.5,69.9,30.11,WSW,254,0.0,0.0,98,0.05,,BKN055,0.25,VWS V14.00,2013-07-04 16:21:00,
2013-07-04 12:30:00,70.4,69.8,30.10,WSW,253,0.0,0.0,98,0.07,,BKN055,0.27,VWS V14.00,2013-07-04 16:30:00,
2013-07-04 12:31:00,70.4,69.8,30.10,WSW,253,0.0,0.0,98,0.07,,BKN055,0.27,VWS V14.00,2013-07-04 16:31:00,
2013-07-04 12:40:00,70.4,69.8,30.10,WSW,254,0.0,0.0,98,0.08,,BKN055,0.29,VWS V14.00,2013-07-04 16:40:00,
2013-07-04 12:41:00,70.4,69.8,30.10,WSW,254,0.0,0.0,98,0.08,,BKN055,0.29,VWS V14.00,2013-07-04 16:41:00,
2013-07-04 12:50:00,70.6,70.0,30.11,WSW,254,0.0,0.0,98,0.11,,BKN055,0.32,VWS V14.00,2013-07-04 16:50:00,
2013-07-04 12:51:00,70.6,70.0,30.11,WSW,254,0.0,0.0,98,0.11,,BKN055,0.32,VWS V14.00,2013-07-04 16:51:00,
2013-07-04 13:00:00,70.6,70.0,30.10,WSW,254,1.0,2.0,98,0.14,,BKN055,0.36,VWS V14.00,2013-07-04 17:00:00,
2013-07-04 13:01:00,70.6,70.0,30.10,WSW,254,1.0,2.0,98,0.14,,BKN055,0.36,VWS V14.00,2013-07-04 17:01:00,
2013-07-04 13:10:00,70.6,70.0,30.10,WSW,253,0.0,2.0,98,0.16,,BKN055,0.38,VWS V14.00,2013-07-04 17:10:00,
2013-07-04 13:11:00,70.6,70.0,30.10,WSW,253,0.0,2.0,98,0.16,,BKN055,0.38,VWS V14.00,2013-07-04 17:11:00,
2013-07-04 13:20:00,70.7,70.1,30.10,SE,145,0.0,1.0,98,0.17,,BKN055,0.39,VWS V14.00,2013-07-04 17:20:00,
2013-07-04 13:21:00,70.7,70.1,30.10,SE,145,0.0,1.0,98,0.17,,BKN055,0.39,VWS V14.00,2013-07-04 17:21:00,
2013-07-04 13:30:00,70.9,70.3,30.10,South,178,0.0,1.0,98,0.16,,BKN055,0.41,VWS V14.00,2013-07-04 17:30:00,
2013-07-04 13:31:00,70.9,70.3,30.10,South,178,0.0,1.0,98,0.16,,BKN055,0.41,VWS V14.00,2013-07-04 17:31:00,
2013-07-04 13:40:00,70.8,70.2,30.10,South,178,0.0,0.0,98,0.15,,BKN055,0.42,VWS V14.00,2013-07-04 17:40:00,
2013-07-04 13:41:00,70.8,70.2,30.10,South,178,0.0,0.0,98,0.15,,BKN055,0.42,VWS V14.00,2013-07-04 17:41:00,
2013-07-04 13:50:00,70.7,70.1,30.10,South,178,0.0,1.0,98,0.15,,BKN055,0.44,VWS V14.00,2013-07-04 17:50:00,
2013-07-04 13:51:00,70.7,70.1,30.10,South,178,0.0,1.0,98,0.15,,BKN055,0.44,VWS V14.00,2013-07-04 17:51:00,
2013-07-04 14:00:00,70.7,70.1,30.09,South,173,0.0,2.0,98,0.18,,BKN055,0.50,VWS V14.00,2013-07-04 18:00:00,
2013-07-04 14:01:00,70.7,70.1,30.09,South,173,0.0,2.0,98,0.18,,BKN055,0.50,VWS V14.00,2013-07-04 18:01:00,
2013-07-04 14:10:00,70.7,70.1,30.09,South,173,0.0,1.0,98,0.16,,BKN055,0.52,VWS V14.00,2013-07-04 18:10:00,
2013-07-04 14:11:00,70.7,70.1,30.09,South,173,0.0,1.0,98,0.16,,BKN055,0.52,VWS V14.00,2013-07-04 18:11:00,
2013-07-04 14:20:00,70.7,70.1,30.08,South,171,0.0,2.0,98,0.17,,BKN055,0.55,VWS V14.00,2013-07-04 18:20:00,
2013-07-04 14:21:00,70.7,70.1,30.08,South,171,0.0,2.0,98,0.17,,BKN055,0.55,VWS V14.00,2013-07-04 18:21:00,
2013-07-04 14:30:00,70.6,70.0,30.08,South,171,0.0,1.0,98,0.17,,BKN055,0.56,VWS V14.00,2013-07-04 18:30:00,
2013-07-04 14:31:00,70.6,70.0,30.08,South,171,0.0,1.0,98,0.17,,BKN055,0.56,VWS V14.00,2013-07-04 18:31:00,
2013-07-04 14:40:00,70.7,70.1,30.09,South,171,0.0,0.0,98,0.17,,BKN055,0.58,VWS V14.00,2013-07-04 18:40:00,
2013-07-04 14:41:00,70.7,70.1,30.09,South,171,0.0,0.0,98,0.17,,BKN055,0.58,VWS V14.00,2013-07-04 18:41:00,
2013-07-04 14:50:00,71.0,70.7,30.09,South,171,0.0,0.0,99,0.16,,BKN055,0.58,VWS V14.00,2013-07-04 18:50:00,
2013-07-04 14:51:00,71.0,70.7,30.09,South,171,0.0,0.0,99,0.16,,BKN055,0.58,VWS V14.00,2013-07-04 18:51:00,
2013-07-04 15:00:00,71.1,70.5,30.09,South,171,0.0,0.0,98,0.14,,BKN055,0.58,VWS V14.00,2013-07-04 19:00:00,
2013-07-04 15:01:00,71.1,70.5,30.09,South,171,0.0,0.0,98,0.14,,BKN055,0.58,VWS V14.00,2013-07-04 19:01:00,
2013-07-04 15:10:00,71.2,70.9,30.09,South,171,0.0,0.0,99,0.10,,BKN055,0.60,VWS V14.00,2013-07-04 19:10:00,
2013-07-04 15:11:00,71.2,70.9,30.09,South,171,0.0,0.0,99,0.10,,BKN055,0.60,VWS V14.00,2013-07-04 19:11:00,
2013-07-04 15:20:00,71.2,70.6,30.08,South,171,0.0,0.0,98,0.10,,BKN055,0.62,VWS V14.00,2013-07-04 19:20:00,
2013-07-04 15:21:00,71.2,70.6,30.08,South,171,0.0,0.0,98,0.10,,BKN055,0.62,VWS V14.00,2013-07-04 19:21:00,
2013-07-04 15:30:00,70.9,70.3,30.07,NE,39,2.0,5.0,98,0.10,,BKN055,0.65,VWS V14.00,2013-07-04 19:30:00,
2013-07-04 15:31:00,70.9,70.3,30.07,NE,39,2.0,5.0,98,0.10,,BKN055,0.65,VWS V14.00,2013-07-04 19:31:00,
2013-07-04 15:40:00,70.7,70.1,30.07,ENE,72,0.0,4.0,98,0.11,,BKN055,0.67,VWS V14.00,2013-07-04 19:40:00,
2013-07-04 15:41:00,70.7,70.1,30.07,ENE,72,0.0,4.0,98,0.11,,BKN055,0.67,VWS V14.00,2013-07-04 19:41:00,
2013-07-04 15:50:00,70.7,70.1,30.07,ENE,71,0.0,1.0,98,0.11,,BKN055,0.69,VWS V14.00,2013-07-04 19:50:00,
2013-07-04 15:51:00,70.7,70.1,30.07,ENE,71,0.0,1.0,98,0.11,,BKN055,0.69,VWS V14.00,2013-07-04 19:51:00,
2013-07-04 16:00:00,70.7,70.1,30.06,NE,42,0.0,4.0,98,0.12,,BKN055,0.70,VWS V14.00,2013-07-04 20:00:00,
2013-07-04 16:01:00,70.7,70.1,30.06,NE,42,0.0,4.0,98,0.12,,BKN055,0.70,VWS V14.00,2013-07-04 20:01:00,
2013-07-04 16:10:00,70.7,70.1,30.06,NE,44,0.0,1.0,98,0.13,,BKN055,0.71,VWS V14.00,2013-07-04 20:10:00,
2013-07-04 16:11:00,70.7,70.1,30.06,NE,44,0.0,1.0,98,0.13,,BKN055,0.71,VWS V14.00,2013-07-04 20:11:00,
2013-07-04 16:20:00,70.7,70.1,30.07,NE,44,0.0,0.0,98,0.11,,BKN055,0.71,VWS V14.00,2013-07-04 20:20:00,
2013-07-04 16:21:00,70.7,70.1,30.07,NE,44,0.0,0.0,98,0.11,,BKN055,0.71,VWS V14.00,2013-07-04 20:21:00,
2013-07-04 16:30:00,70.9,70.3,30.07,NE,44,0.0,1.0,98,0.09,,BKN055,0.71,VWS V14.00,2013-07-04 20:30:00,
2013-07-04 16:31:00,70.9,70.3,30.07,NE,44,0.0,1.0,98,0.09,,BKN055,0.71,VWS V14.00,2013-07-04 20:31:00,
2013-07-04 16:40:00,71.1,70.8,30.07,NE,44,0.0,0.0,99,0.07,,BKN055,0.72,VWS V14.00,2013-07-04 20:40:00,
2013-07-04 16:41:00,71.1,70.8,30.07,NE,44,0.0,0.0,99,0.07,,BKN055,0.72,VWS V14.00,2013-07-04 20:41:00,
2013-07-04 16:50:00,70.8,70.2,30.06,NE,44,0.0,0.0,98,0.05,,BKN055,0.72,VWS V14.00,2013-07-04 20:50:00,
2013-07-04 16:51:00,70.8,70.2,30.06,NE,44,0.0,0.0,98,0.05,,BKN055,0.72,VWS V14.00,2013-07-04 20:51:00,
2013-07-04 17:00:00,70.8,70.2,30.06,NE,43,0.0,0.0,98,0.04,,BKN055,0.73,VWS V14.00,2013-07-04 21:00:00,
2013-07-04 17:01:00,70.8,70.2,30.06,NE,43,0.0,0.0,98,0.04,,BKN055,0.73,VWS V14.00,2013-07-04 21:01:00,
2013-07-04 17:10:00,70.8,70.2,30.07,NNW,336,0.0,3.0,98,0.04,,BKN055,0.74,VWS V14.00,2013-07-04 21:10:00,
2013-07-04 17:11:00,70.8,70.2,30.07,NNW,336,0.0,3.0,98,0.04,,BKN055,0.74,VWS V14.00,2013-07-04 21:11:00,
2013-07-04 17:20:00,70.8,70.2,30.06,NNW,336,0.0,0.0,98,0.03,,BKN055,0.74,VWS V14.00,2013-07-04 21:20:00,
2013-07-04 17:21:00,70.8,70.2,30.06,NNW,336,0.0,0.0,98,0.03,,BKN055,0.74,VWS V14.00,2013-07-04 21:21:00,
2013-07-04 17:30:00,70.9,70.3,30.05,NNW,336,0.0,0.0,98,0.03,,BKN055,0.74,VWS V14.00,2013-07-04 21:30:00,
2013-07-04 17:31:00,70.9,70.3,30.05,NNW,336,0.0,0.0,98,0.03,,BKN055,0.74,VWS V14.00,2013-07-04 21:31:00,
2013-07-04 17:40:00,71.1,70.5,30.04,North,349,0.0,0.0,98,0.03,,BKN055,0.74,VWS V14.00,2013-07-04 21:40:00,
2013-07-04 17:41:00,71.1,70.5,30.04,North,349,0.0,0.0,98,0.03,,BKN055,0.74,VWS V14.00,2013-07-04 21:41:00,
2013-07-04 17:50:00,71.0,70.4,30.03,East,97,0.0,3.0,98,0.02,,BKN055,0.74,VWS V14.00,2013-07-04 21:50:00,
2013-07-04 17:51:00,71.0,70.4,30.03,East,97,0.0,3.0,98,0.02,,BKN055,0.74,VWS V14.00,2013-07-04 21:51:00,
2013-07-04 18:00:00,71.1,70.5,30.03,East,86,0.0,1.0,98,0.02,,BKN055,0.74,VWS V14.00,2013-07-04 22:00:00,
2013-07-04 18:01:00,71.1,70.5,30.03,East,86,0.0,1.0,98,0.02,,BKN055,0.74,VWS V14.00,2013-07-04 22:01:00,
2013-07-04 18:10:00,71.2,70.6,30.04,East,86,0.0,1.0,98,0.01,,BKN055,0.74,VWS V14.00,2013-07-04 22:10:00,
2013-07-04 18:11:00,71.2,70.6,30.04,East,86,0.0,1.0,98,0.01,,BKN055,0.74,VWS V14.00,2013-07-04 22:11:00,
2013-07-04 18:20:00,71.2,70.6,30.04,ENE,57,0.0,2.0,98,0.01,,BKN055,0.75,VWS V14.00,2013-07-04 22:20:00,
2013-07-04 18:21:00,71.2,70.6,30.04,ENE,57,0.0,2.0,98,0.01,,BKN055,0.75,VWS V14.00,2013-07-04 22:21:00,
2013-07-04 18:30:00,71.3,70.7,30.04,SSW,208,0.0,2.0,98,0.01,,BKN055,0.75,VWS V14.00,2013-07-04 22:30:00,
2013-07-04 18:31:00,71.3,70.7,30.04,SSW,208,0.0,2.0,98,0.01,,BKN055,0.75,VWS V14.00,2013-07-04 22:31:00,
2013-07-04 18:40:00,71.3,70.7,30.04,SSW,208,0.0,0.0,98,0.01,,BKN055,0.75,VWS V14.00,2013-07-04 22:40:00,
2013-07-04 18:41:00,71.3,70.7,30.04,SSW,208,0.0,0.0,98,0.01,,BKN055,0.75,VWS V14.00,2013-07-04 22:41:00,
2013-07-04 18:50:00,71.5,70.9,30.03,ESE,108,0.0,0.0,98,0.01,,BKN055,0.75,VWS V14.00,2013-07-04 22:50:00,
2013-07-04 18:51:00,71.5,70.9,30.03,ESE,108,0.0,0.0,98,0.01,,BKN055,0.75,VWS V14.00,2013-07-04 22:51:00,
2013-07-04 19:00:00,71.5,70.9,30.03,ESE,107,0.0,0.0,98,0.01,,BKN055,0.75,VWS V14.00,2013-07-04 23:00:00,
2013-07-04 19:01:00,71.5,70.9,30.03,ESE,107,0.0,0.0,98,0.01,,BKN055,0.75,VWS V14.00,2013-07-04 23:01:00,
2013-07-04 19:10:00,71.6,71.3,30.03,ESE,108,0.0,0.0,99,0.01,,BKN055,0.75,VWS V14.00,2013-07-04 23:10:00,
2013-07-04 19:11:00,71.6,71.3,30.03,ESE,108,0.0,0.0,99,0.01,,BKN055,0.75,VWS V14.00,2013-07-04 23:11:00,
2013-07-04 19:20:00,71.4,70.8,30.03,ESE,107,0.0,0.0,98,0.01,,BKN055,0.75,VWS V14.00,2013-07-04 23:20:00,
2013-07-04 19:21:00,71.4,70.8,30.03,ESE,107,0.0,0.0,98,0.01,,BKN055,0.75,VWS V14.00,2013-07-04 23:21:00,
2013-07-04 19:30:00,71.3,70.7,30.03,ESE,108,0.0,0.0,98,0.00,,BKN055,0.75,VWS V14.00,2013-07-04 23:30:00,
2013-07-04 19:31:00,71.3,70.7,30.03,ESE,108,0.0,0.0,98,0.00,,BKN055,0.75,VWS V14.00,2013-07-04 23:31:00,
2013-07-04 19:40:00,71.3,70.7,30.03,ESE,108,0.0,0.0,98,0.01,,BKN055,0.76,VWS V14.00,2013-07-04 23:40:00,
2013-07-04 19:41:00,71.3,70.7,30.03,ESE,108,0.0,0.0,98,0.01,,BKN055,0.76,VWS V14.00,2013-07-04 23:41:00,
2013-07-04 19:50:00,71.3,71.0,30.03,SSE,152,0.0,1.0,99,0.01,,BKN055,0.76,VWS V14.00,2013-07-04 23:50:00,
2013-07-04 19:51:00,71.3,71.0,30.03,SSE,152,0.0,1.0,99,0.01,,BKN055,0.76,VWS V14.00,2013-07-04 23:51:00,
2013-07-04 20:00:00,71.1,70.8,30.04,West,261,0.0,3.0,99,0.02,,BKN055,0.77,VWS V14.00,2013-07-05 00:00:00,
2013-07-04 20:01:00,71.1,70.8,30.04,West,261,0.0,3.0,99,0.02,,BKN055,0.77,VWS V14.00,2013-07-05 00:01:00,
2013-07-04 20:10:00,71.0,70.4,30.04,West,263,0.0,2.0,98,0.03,,BKN055,0.78,VWS V14.00,2013-07-05 00:10:00,
2013-07-04 20:11:00,71.0,70.4,30.04,West,263,0.0,2.0,98,0.03,,BKN055,0.78,VWS V14.00,2013-07-05 00:11:00,
2013-07-04 20:20:00,70.9,70.6,30.05,West,263,0.0,0.0,99,0.03,,BKN055,0.78,VWS V14.00,2013-07-05 00:20:00,
2013-07-04 20:21:00,70.9,70.6,30.05,West,263,0.0,0.0,99,0.03,,BKN055,0.78,VWS V14.00,2013-07-05 00:21:00,
2013-07-04 20:30:00,70.9,70.6,30.05,West,263,0.0,1.0,99,0.04,,BKN055,0.79,VWS V14.00,2013-07-05 00:30:00,
2013-07-04 20:31:00,70.9,70.6,30.05,West,263,0.0,1.0,99,0.04,,BKN055,0.79,VWS V14.00,2013-07-05 00:31:00,
2013-07-04 20:40:00,70.8,70.5,30.06,WSW,249,0.0,4.0,99,0.04,,BKN055,0.79,VWS V14.00,2013-07-05 00:40:00,
2013-07-04 20:41:00,70.8,70.5,30.06,WSW,249,0.0,4.0,99,0.04,,BKN055,0.79,VWS V14.00,2013-07-05 00:41:00,
2013-07-04 20:50:00,70.8,70.5,30.05,WSW,249,0.0,0.0,99,0.03,,BKN055,0.79,VWS V14.00,2013-07-05 00:50:00,
2013-07-04 20:51:00,70.8,70.5,30.05,WSW,249,0.0,0.0,99,0.03,,BKN055,0.79,VWS V14.00,2013-07-05 00:51:00,
2013-07-04 21:00:00,70.8,70.5,30.04,WSW,249,0.0,0.0,99,0.04,,BKN055,0.80,VWS V14.00,2013-07-05 01:00:00,
2013-07-04 21:01:00,70.8,70.5,30.04,WSW,249,0.0,0.0,99,0.04,,BKN055,0.80,VWS V14.00,2013-07-05 01:01:00,
2013-07-04 21:10:00,70.7,70.4,30.04,WSW,249,0.0,0.0,99,0.04,,BKN055,0.81,VWS V14.00,2013-07-05 01:10:00,
2013-07-04 21:11:00,70.7,70.4,30.04,WSW,249,0.0,0.0,99,0.04,,BKN055,0.81,VWS V14.00,2013-07-05 01:11:00,
2013-07-04 21:20:00,70.5,70.2,30.03,WSW,249,0.0,0.0,99,0.03,,BKN055,0.81,VWS V14.00,2013-07-05 01:20:00,
2013-07-04 21:21:00,70.5,70.2,30.03,WSW,249,0.0,0.0,99,0.03,,BKN055,0.81,VWS V14.00,2013-07-05 01:21:00,
2013-07-04 21:30:00,70.2,69.9,30.02,WSW,249,0.0,0.0,99,0.03,,BKN055,0.81,VWS V14.00,2013-07-05 01:30:00,
2013-07-04 21:31:00,70.2,69.9,30.02,WSW,249,0.0,0.0,99,0.03,,BKN055,0.81,VWS V14.00,2013-07-05 01:31:00,
2013-07-04 21:40:00,69.9,69.6,30.02,WSW,249,0.0,0.0,99,0.03,,BKN055,0.82,VWS V14.00,2013-07-05 01:40:00,
2013-07-04 21:41:00,69.9,69.6,30.02,WSW,249,0.0,0.0,99,0.03,,BKN055,0.82,VWS V14.00,2013-07-05 01:41:00,
2013-07-04 21:50:00,69.7,69.4,30.02,NE,42,0.0,3.0,99,0.03,,BKN055,0.82,VWS V14.00,2013-07-05 01:50:00,
2013-07-04 21:51:00,69.7,69.4,30.02,NE,42,0.0,3.0,99,0.03,,BKN055,0.82,VWS V14.00,2013-07-05 01:51:00,
2013-07-04 22:00:00,69.4,69.1,30.03,ENE,65,0.0,3.0,99,0.03,,BKN055,0.82,VWS V14.00,2013-07-05 02:00:00,
2013-07-04 22:01:00,69.4,69.1,30.03,ENE,65,0.0,3.0,99,0.03,,BKN055,0.82,VWS V14.00,2013-07-05 02:01:00,
2013-07-04 22:10:00,69.3,69.0,30.05,ENE,65,0.0,1.0,99,0.02,,BKN055,0.82,VWS V14.00,2013-07-05 02:10:00,
2013-07-04 22:11:00,69.3,69.0,30.05,ENE,65,0.0,1.0,99,0.02,,BKN055,0.82,VWS V14.00,2013-07-05 02:11:00,
2013-07-04 22:20:00,69.2,68.9,30.06,West,272,2.0,3.0,99,0.01,,BKN055,0.82,VWS V14.00,2013-07-05 02:20:00,
2013-07-04 22:21:00,69.2,68.9,30.06,West,272,2.0,3.0,99,0.01,,BKN055,0.82,VWS V14.00,2013-07-05 02:21:00,
2013-07-04 22:30:00,69.3,69.0,30.05,WNW,286,0.0,3.0,99,0.01,,BKN055,0.82,VWS V14.00,2013-07-05 02:30:00,
2013-07-04 22:31:00,69.3,69.0,30.05,WNW,286,0.0,3.0,99,0.01,,BKN055,0.82,VWS V14.00,2013-07-05 02:31:00,
2013-07-04 22:40:00,69.2,68.9,30.05,West,264,0.0,5.0,99,0.01,,BKN055,0.82,VWS V14.00,2013-07-05 02:40:00,
2013-07-04 22:41:00,69.2,68.9,30.05,West,264,0.0,5.0,99,0.01,,BKN055,0.82,VWS V14.00,2013-07-05 02:41:00,
2013-07-04 22:50:00,69.0,68.7,30.05,WSW,248,0.0,4.0,99,0.00,,BKN055,0.82,VWS V14.00,2013-07-05 02:50:00,
2013-07-04 22:51:00,69.0,68.7,30.05,WSW,248,0.0,4.0,99,0.00,,BKN055,0.82,VWS V14.00,2013-07-05 02:51:00,
2013-07-04 23:00:00,68.9,68.3,30.06,WSW,248,0.0,1.0,98,0.00,,BKN055,0.82,VWS V14.00,2013-07-05 03:00:00,
2013-07-04 23:01:00,68.9,68.3,30.06,WSW,248,0.0,1.0,98,0.00,,BKN055,0.82,VWS V14.00,2013-07-05 03:01:00,
2013-07-04 23:10:00,68.6,68.0,30.06,WSW,249,0.0,3.0,98,0.00,,BKN055,0.82,VWS V14.00,2013-07-05 03:10:00,
2013-07-04 23:11:00,68.6,68.0,30.06,WSW,249,0.0,3.0,98,0.00,,BKN055,0.82,VWS V14.00,2013-07-05 03:11:00,
2013-07-04 23:20:00,68.3,67.7,30.05,WSW,249,1.0,3.0,98,0.00,,BKN055,0.82,VWS V14.00,2013-07-05 03:20:00,
2013-07-04 23:21:00,68.3,67.7,30.05,WSW,249,1.0,3.0,98,0.00,,BKN055,0.82,VWS V14.00,2013-07-05 03:21:00,
2013-07-04 23:30:00,68.2,67.6,30.06,WSW,248,0.0,4.0,98,0.00,,BKN055,0.82,VWS V14.00,2013-07-05 03:30:00,
2013-07-04 23:31:00,68.2,67.6,30.06,WSW,248,0.0,4.0,98,0.00,,BKN055,0.82,VWS V14.00,2013-07-05 03:31:00,
2013-07-04 23:40:00,68.0,67.4,30.07,WSW,248,0.0,0.0,98,0.00,,BKN055,0.82,VWS V14.00,2013-07-05 03:40:00,
2013-07-04 23:41:00,68.0,67.4,30.07,WSW,248,0.0,0.0,98,0.00,,BKN055,0.82,VWS V14.00,2013-07-05 03:41:00,
2013-07-04 23:50:00,67.9,67.3,30.08,WSW,248,0.0,0.0,98,0.00,,BKN055,0.82,VWS V14.00,2013-07-05 03:50:00,
2013-07-04 23:51:00,67.9,67.3,30.08,WSW,248,0.0,0.0,98,0.00,,BKN055,0.82,VWS V14.00,2013-07-05 03:51:00,